{"data":{"norad_id":43463,"intl_designator":"2018-044A","name":"BANGABANDHUSAT-1","alt_names":[],"object_type":"PAYLOAD","status":"ACTIVE","operator":null,"country":"BGD","launch_date":"2018-05-11","launch_site_code":"AFETR","launch_vehicle":null,"mission":null,"orbit_class":"UNKNOWN","rcs_meters":null,"size_class":null,"mass_kg":null,"dimensions":null,"purposes":["comms"],"wikipedia_slug":null,"has_3d_model":false,"image_url":null,"decayed_at":null,"tle_current":{"epoch":"2026-09-20T00:22:46.197408Z","epoch_age_seconds":68975,"freshness":"FRESH","line1":"1 43463U 18044A   26263.01581247 -.00000367  00000+0  00000+0 0  9999","line2":"2 43463   0.0086 147.6883 0002425  38.2111 297.8198  1.00272363 30665","mean_motion":1.00272363,"eccentricity":0.0002425,"inclination_deg":0.0086,"raan_deg":147.6883,"arg_perigee_deg":38.2111,"mean_anomaly_deg":297.8198,"bstar":0,"rev_number":3066,"period_min":1436.0886259357,"perigee_km":35776.20801938,"apogee_km":35796.657835794,"semimajor_km":42164.569927587,"source":"CELESTRAK","updated_at":"2026-09-20T09:00:35.260744Z"}}}